PRAETORIAN SDA_618

Last updated on Sun Jun 21 2026 00:03:46 GMT+0000 (Coordinated Universal Time)

1 65581U 25203S 26170.94095469 .00000180 00000+0 14921-3 0 9997 2 65581 81.3020 7.9356 0009634 180.2746 179.8408 13.84669976 39098
UTC large
Height (km)
Speed (km/s)
/
Latitude / Longitude
Inclination (degrees)
Orbital Period (minutes)
Azimuth
Elevation
Range (km)
Doppler Factor

Next 0 passes for location: London (51.5072 / 0.1276)

No passes found over London.
PRAETORIAN SDA_618